Santa Monica, CA

6:32 AM PDT on April 26, 2017 (GMT -0700)
Santa Monica Municipal

Weather History for KSMO - January, 2013

Change the Weather History Date:

Monday, January 14, 2013

  Actual Average Record
Temperature  
Mean Temperature 49 °F -  
Max Temperature 59 °F 68 °F 86 °F (1961)
Min Temperature 39 °F 48 °F 34 °F (2007)
Degree Days  
Heating Degree Days 16    
Moisture  
Dew Point 3 °F    
Average Humidity 17    
Maximum Humidity 29    
Minimum Humidity 8    
Precipitation  
Precipitation 0.00 in - - ()
Sea Level Pressure  
Sea Level Pressure 30.26 in    
Wind  
Wind Speed 6 mph (North)    
Max Wind Speed 13 mph    
Max Gust Speed 20 mph    
Visibility 10 miles    
Events      
Averages and records for this station are not official NWS values.
T = Trace of Precipitation, MM = Missing Value Source: NWS Daily Summary

Daily Weather History Graph

Daily Weather History Graph

Search for Another Location

Airport or City:

Trip Planner

Search our weather history database for the weather conditions in past years. The results will help you decide how hot, cold, wet, or windy it might be!

Date:

Astronomy

Jan. 14, 2013 Rise Set
Actual Time 6:59 AM PST 5:07 PM PST
Civil Twilight 6:32 AM PST 5:34 PM PST
Nautical Twilight 6:01 AM PST 6:05 PM PST
Astronomical Twilight 5:31 AM PST 6:35 PM PST
Moon 8:46 AM PST (1/14) 8:45 PM PST (1/14)
Length of Visible Light 11h 02m
Length of Day
10h 07m
Waxing Crescent, 12% of the Moon is Illuminated
Jan 14
Waxing Crescent
Jan 18
First Quarter
Jan 26
Full
Feb 3
Last Quarter
Feb 9
New

Hourly Weather History & Observations

Time (PST) Temp. Windchill Dew Point Humidity Pressure Visibility Wind Dir Wind Speed Gust Speed Precip Events Conditions
12:51 AM 45.0 °F 41.2 °F 10.0 °F 24% 30.16 in 10.0 mi North 6.9 mph - N/A   Clear
1:51 AM 45.0 °F 43.5 °F 7.0 °F 21% 30.19 in 10.0 mi North 3.5 mph - N/A   Clear
2:51 AM 42.1 °F 39.2 °F 8.1 °F 25% 30.20 in 10.0 mi NE 4.6 mph - N/A   Clear
3:51 AM 43.0 °F 38.8 °F 5.0 °F 21% 30.19 in 10.0 mi North 6.9 mph - N/A   Clear
4:51 AM 42.1 °F 35.7 °F 5.0 °F 22% 30.19 in 10.0 mi North 11.5 mph 19.6 mph N/A   Clear
5:51 AM 41.0 °F 35.2 °F 3.9 °F 21% 30.22 in 10.0 mi NE 9.2 mph 16.1 mph N/A   Clear
6:51 AM 39.9 °F 37.8 °F 3.9 °F 22% 30.25 in 10.0 mi NE 3.5 mph - N/A   Clear
7:51 AM 43.0 °F 39.5 °F 1.9 °F 18% 30.28 in 10.0 mi Variable 5.8 mph - N/A   Clear
8:51 AM 46.9 °F - 3.9 °F 17% 30.30 in 10.0 mi NNE 9.2 mph - N/A   Clear
9:51 AM 50.0 °F - 3.0 °F 15% 30.31 in 10.0 mi Variable 5.8 mph - N/A   Clear
10:51 AM 54.0 °F - 1.9 °F 12% 30.30 in 10.0 mi Variable 3.5 mph - N/A   Clear
11:51 AM 55.0 °F - -0.9 °F 10% 30.26 in 10.0 mi North 4.6 mph - N/A   Clear
12:51 PM 57.0 °F - 1.0 °F 10% 30.25 in 10.0 mi Variable 5.8 mph - N/A   Clear
1:51 PM 57.9 °F - -2.0 °F 9% 30.23 in 10.0 mi NW 8.1 mph - N/A   Clear
2:22 PM 59.0 °F - -2.2 °F 8% 30.23 in 10.0 mi NNE 12.7 mph 19.6 mph N/A   Clear
2:51 PM 57.9 °F - -2.0 °F 9% 30.23 in 10.0 mi Variable 6.9 mph 18.4 mph N/A   Clear
3:51 PM 57.9 °F - -0.9 °F 9% 30.24 in 10.0 mi NNW 9.2 mph - N/A   Clear
4:51 PM 53.1 °F - 21.0 °F 29% 30.26 in 10.0 mi NNE 3.5 mph - N/A   Clear
5:51 PM 51.1 °F - -0.9 °F 12% 30.29 in 10.0 mi North 8.1 mph 16.1 mph N/A   Clear
6:51 PM 48.9 °F - 1.9 °F 15% 30.31 in 10.0 mi North 9.2 mph 16.1 mph N/A   Clear
7:51 PM 48.0 °F - 3.0 °F 16% 30.32 in 10.0 mi North 4.6 mph - N/A   Clear
8:51 PM 46.9 °F - 1.9 °F 16% 30.32 in 10.0 mi North 5.8 mph - N/A   Clear
9:51 PM 46.9 °F - 1.9 °F 16% 30.33 in 10.0 mi North 5.8 mph - N/A   Clear
10:51 PM 46.0 °F 43.9 °F 3.9 °F 18% 30.33 in 10.0 mi North 4.6 mph - N/A   Clear
11:51 PM 46.0 °F - 3.9 °F 18% 30.35 in 10.0 mi Calm Calm - N/A   Clear